This demonstration page uses our WeatherBlox Daily Observations layout. Learn more.

Left ArrowRight Arrow

34.16533, -84.80231

Hourly Observations for April 26, 2020

Temp ( °F °C ) Dew Point ( °F °C ) Humidity (%) Winds ( mph kmh ) Pressure ( in mb ) Visibility ( mi km ) Precip ( " mm )
12:53 am 00:53 Mostly Cloudy 63 17.2 48 8.9 58 58 VRB 5 7 29.90 1012 10 16 0.00 0.00
1:53 am 01:53 Cloudy 61 16.1 47 8.3 60 60 undefined N/A 29.90 1013 10 16 0.00 0.00
2:53 am 02:53 Mostly Clear 59 15 46 7.8 62 62 Calm 29.91 1013 10 16 0.00 0.00
3:53 am 03:53 Mostly Cloudy 58 14.4 46 7.8 65 65 VRB 3 6 29.91 1013 10 16 0.00 0.00
4:53 am 04:53 Mostly Cloudy 57 13.9 46 7.8 67 67 Calm 29.90 1013 10 16 0.00 0.00
5:53 am 05:53 Mostly Cloudy 55 12.8 46 7.8 72 72 Calm 29.91 1013 10 16 0.00 0.00
6:53 am 06:53 Mostly Cloudy 54 12.2 46 7.8 75 75 Calm 29.92 1013 10 16 0.00 0.00
7:39 am 07:39 Cloudy 55 12.8 47 8.3 74 74 Calm 29.95 1014 10 16 0.00 0.00
7:53 am 07:53 Cloudy 56 13.3 46 7.8 70 70 VRB 3 6 29.93 1013 10 16 0.00 0.00
8:27 am 08:27 Mostly Cloudy 56 13.3 46 7.8 70 70 VRB 5 7 29.96 1015 10 16 0.00 0.00
8:53 am 08:53 Cloudy 56 13.3 44 6.7 65 65 VRB 6 9 29.93 1014 10 16 0.00 0.00
9:53 am 09:53 Cloudy 58 14.4 44 6.7 60 60 VRB 3 6 29.95 1014 10 16 0.00 0.00
10:53 am 10:53 Mostly Cloudy 59 15 44 6.7 58 58 VRB 7 11 29.98 1015 10 16 0.00 0.00
11:53 am 11:53 Cloudy 60 15.6 44 6.7 56 56 Calm 29.99 1016 10 16 0.00 0.00
12:53 pm 12:53 Mostly Cloudy 63 17.2 45 7.2 52 52 VRB 6 9 29.98 1015 10 16 0.00 0.00
1:53 pm 13:53 Mostly Cloudy 64 17.8 45 7.2 50 50 Calm 29.97 1015 10 16 0.00 0.00
2:53 pm 14:53 Cloudy 62 16.7 45 7.2 54 54 VRB 6 9 29.98 1015 10 16 0.00 0.00
3:53 pm 15:53 Cloudy 60 15.6 44 6.7 56 56 VRB 5 7 30.01 1016 10 16 0.00 0.00
4:53 pm 16:53 Cloudy 59 15 43 6.1 56 56 VRB 5 7 30.03 1017 10 16 0.00 0.00
5:53 pm 17:53 Cloudy 58 14.4 43 6.1 58 58 VRB 5 7 30.05 1018 10 16 0.00 0.00
6:53 pm 18:53 Cloudy 57 13.9 43 6.1 60 60 VRB 3 6 30.07 1018 10 16 0.00 0.00
7:53 pm 19:53 Cloudy 56 13.3 42 5.6 60 60 VRB 7 11 30.08 1019 10 16 0.00 0.00
8:53 pm 20:53 Cloudy 55 12.8 42 5.6 62 62 NNW 9 15 30.11 1020 10 16 0.00 0.00
9:53 pm 21:53 Cloudy 54 12.2 42 5.6 64 64 VRB 5 7 30.13 1020 10 16 0.00 0.00
10:53 pm 22:53 Partly Cloudy 52 11.1 41 5 66 66 VRB 6 9 30.15 1021 10 16 0.00 0.00
11:53 pm 23:53 Mostly Clear 50 10 41 5 71 71 Calm 30.15 1021 10 16 0.00 0.00

Powered by AerisWeather